Regional Weather Roundup
Issued by NWS Northern Indiana

Home | Current Version | Previous Version | Graphics & Text | Print | Product List | Glossary On
Versions: 1 2 3 4 5 6 7 8 9 10 11 12 13 14 15 16 17 18 19 20 21 22 23 24 25 26 27 28 29 30 31 32 33 34 35 36 37 38 39 40 41 42 43 44 45 46 47 48 49 50
000
ASUS43 KIWX 211200
RWRIWX

KIWX WEATHER ROUNDUP
NATIONAL WEATHER SERVICE NORTHERN INDIANA
800 AM EDT THU AUG 21 2014

NOTE: "FAIR" INDICATES FEW OR NO CLOUDS BELOW 12,000 FEET WITH NO
SIGNIFICANT WEATHER AND/OR OBSTRUCTIONS TO VISIBILITY.

* THESE STATIONS ARE NOT UNDER NWS QUALITY CONTROL. THEY ALSO MAY NOT
  REPORT WEATHER SUCH AS PRECIPITATION OR FOG.

INZ001>027-211300-
NORTHERN INDIANA

CITY           SKY/WX    TMP DP  RH WIND       PRES   REMARKS
GARY*          LGT RAIN  72  70  94 VRB5      29.95S
VALPARAISO     LGT RAIN  70  69  97 SW10      29.98R FOG
6HR MIN TEMP:  68; 6HR MAX TEMP:  70; 6HR PCP:  0.45;

KNOX*          CLOUDY    69  66  92 W5        29.97R
6HR MIN TEMP:  41; 6HR MAX TEMP:  86;

SOUTH BEND     CLOUDY    72  66  81 S3        29.95F
6HR MIN TEMP:  68; 6HR MAX TEMP:  73;

GOSHEN         PTSUNNY   71  67  87 S5        29.96F
6HR MIN TEMP:  68; 6HR MAX TEMP:  73;

MONTICELLO*    CLOUDY    71  69  95 SE3       29.97R
6HR MIN TEMP:  69; 6HR MAX TEMP:  71;

WARSAW*        PTSUNNY   70  68  94 SW3       29.98R
ANGOLA*        SUNNY     70  61  73 CALM      29.97F
FORT WAYNE     PTSUNNY   71  67  87 S5        29.99R
6HR MIN TEMP:  69; 6HR MAX TEMP:  71; 6HR PCP: TRACE;

PERU/GRISSOM   TSTM      70  70 100 SW16      29.99R

$$
INZ028>050-211300-
CENTRAL INDIANA

CITY           SKY/WX    TMP DP  RH WIND       PRES   REMARKS
LAFAYETTE      MOCLDY    70  69  97 SE5       29.97R
6HR MIN TEMP:  69; 6HR MAX TEMP:  70;

KOKOMO*        PTSUNNY   70  66  88 SW5       30.01R THUNDER
6HR MIN TEMP:  68; 6HR MAX TEMP:  72; 6HR PCP:  0.22;

MUNCIE*        MOSUNNY   71  68  90 S8        30.00S
6HR MIN TEMP:  70; 6HR MAX TEMP:  72; 6HR PCP:  0.05;

INDIANAPOLIS   TSTM      71  66  84 SW9       29.98F
6HR MIN TEMP:  70; 6HR MAX TEMP:  73; 6HR PCP:  0.09;


$$
MIZ043>046-050>051-056>058-064>065-071>073-077>080-211300-
SOUTHWEST LOWER MICHIGAN

CITY           SKY/WX    TMP DP  RH WIND       PRES   REMARKS
BATTLE CREEK   MOSUNNY   69  67  93 SW3       29.98R FOG
6HR MIN TEMP:  66; 6HR MAX TEMP:  72;

BENTON HARBOR  MOSUNNY   70  67  90 CALM      29.93F
6HR MIN TEMP:  67; 6HR MAX TEMP:  74;

COLDWATER*     MOSUNNY   69  68  96 CALM      29.98S FOG
6HR MIN TEMP:  67; 6HR MAX TEMP:  70;

HILLSDALE*     MOSUNNY   70  70 100 W3        29.99R FOG
6HR MIN TEMP:  64; 6HR MAX TEMP:  70;

HOLLAND        CLOUDY    69  66  90 CALM      29.96S FOG
6HR MIN TEMP:  65; 6HR MAX TEMP:  69;

GRAND RAPIDS   MOSUNNY   65  65 100 E6        29.97S
6HR MIN TEMP:  64; 6HR MAX TEMP:  67;

KALAMAZOO      MOSUNNY   70  67  90 SW5       29.97S
6HR MIN TEMP:  65; 6HR MAX TEMP:  70;

STURGIS*       SUNNY     68  66  94 CALM      29.96F
THREE RIVERS*  FAIR      69  68  95 CALM      29.96F

$$
OHZ001>008-015>018-024>025-211300-
NORTHWEST OHIO

CITY           SKY/WX    TMP DP  RH WIND       PRES   REMARKS
DEFIANCE       SUNNY     69  66  90 CALM      29.99R
6HR MIN TEMP:  67; 6HR MAX TEMP:  74;

FINDLAY        MOSUNNY   70  66  87 S5        30.00R
6HR MIN TEMP:  67; 6HR MAX TEMP:  72;

TOLEDO EXPRESS MOSUNNY   67  66  97 CALM      29.98R FOG
6HR MIN TEMP:  66; 6HR MAX TEMP:  69;

TOLEDO METCALF MOSUNNY   69  66  90 SW6       29.98S
6HR MIN TEMP:  67; 6HR MAX TEMP:  69;

LIMA           CLOUDY    71  67  87 S8        30.01R
6HR MIN TEMP:  69; 6HR MAX TEMP:  71;


$$
&&



USA.gov is the U.S. government's official web portal to all federal, state and local government web resources and services.